Buffalo, NY

11:07 PM EDT on September 18, 2019 (GMT -0400)
Buffalo Niagara International

Weather History for KBUF - August, 2019

Change the Weather History Date:

Saturday, August 24, 2019

  Actual Average Record
Temperature  
Mean Temperature 63 °F 69 °F  
Max Temperature 71 °F 78 °F 91 °F (1947)
Min Temperature 55 °F 60 °F 43 °F (1971)
Degree Days  
Heating Degree Days 2 1  
Month to date heating degree days 2 9  
Since 1 June heating degree days 64 82  
Since 1 July heating degree days 2 18  
Cooling Degree Days 0 4  
Month to date cooling degree days 156 133  
Year to date cooling degree days 524 459  
Since 1 June cooling degree days 516 433  
Growing Degree Days 13 (Base 50)    
Moisture  
Dew Point 51 °F    
Average Humidity 67    
Maximum Humidity 83    
Minimum Humidity 51    
Precipitation  
Precipitation 0.00 in 0.10 in 2.04 in (1975)
Month to date precipitation 3.38 2.54  
Year to date precipitation 28.13 24.44  
Snow  
Snow 0.00 in 0.00 in 0.00 in ()
Month to date snowfall 0.0 0.0  
Since 1 June snowfall 0.0 0.0  
Since 1 July snowfall 0.0 0.0  
Snow Depth 0.00 in    
Sea Level Pressure  
Sea Level Pressure 30.26 in    
Wind  
Wind Speed 6 mph (NE)    
Max Wind Speed 14 mph    
Max Gust Speed 18 mph    
Visibility 10 miles    
Events      
T = Trace of Precipitation, MM = Missing Value Source: NWS Daily Summary

Daily Weather History Graph

Daily Weather History Graph

Search for Another Location

Airport or City:

Astronomy

Aug. 24, 2019 Rise Set
Actual Time 6:30 AM EDT 8:03 PM EDT
Civil Twilight 6:00 AM EDT 8:33 PM EDT
Nautical Twilight 5:24 AM EDT 9:09 PM EDT
Astronomical Twilight 4:46 AM EDT 9:47 PM EDT
Moon 12:19 AM EDT (8/24) 3:21 PM EDT (8/24)
Length of Visible Light 14h 32m
Length of Day
13h 32m
Last Quarter, 39% of the Moon is Illuminated
Aug 24
Last Quarter
Aug 30
New
Sep 5
First Quarter
Sep 14
Full
Sep 21
Last Quarter

Hourly Weather History & Observations

Time (EDT) Temp. Dew Point Humidity Pressure Visibility Wind Dir Wind Speed Gust Speed Precip Events Conditions
12:54 AM 59.0 °F 50.0 °F 72% 30.21 in 10.0 mi NNW 5.8 mph - N/A   Scattered Clouds
1:54 AM 57.9 °F 50.0 °F 75% 30.21 in 10.0 mi NNW 4.6 mph - N/A   Partly Cloudy
2:54 AM 57.9 °F 50.0 °F 75% 30.21 in 10.0 mi North 5.8 mph - N/A   Partly Cloudy
3:54 AM 57.0 °F 48.9 °F 74% 30.22 in 10.0 mi North 3.5 mph - N/A   Clear
4:54 AM 57.9 °F 50.0 °F 75% 30.22 in 10.0 mi NNE 3.5 mph - N/A   Scattered Clouds
5:54 AM 57.0 °F 48.9 °F 74% 30.24 in 10.0 mi Calm Calm - N/A   Partly Cloudy
6:54 AM 55.0 °F 50.0 °F 83% 30.27 in 10.0 mi Calm Calm - N/A   Partly Cloudy
7:54 AM 57.9 °F 51.1 °F 78% 30.28 in 10.0 mi Calm Calm - N/A   Partly Cloudy
8:54 AM 64.0 °F 52.0 °F 65% 30.29 in 10.0 mi NE 6.9 mph - N/A   Partly Cloudy
9:54 AM 64.9 °F 52.0 °F 63% 30.30 in 10.0 mi NNE 10.4 mph - N/A   Mostly Cloudy
10:54 AM 64.9 °F 51.1 °F 61% 30.30 in 10.0 mi NE 9.2 mph - N/A   Mostly Cloudy
11:54 AM 66.0 °F 52.0 °F 60% 30.29 in 10.0 mi NNE 6.9 mph - N/A   Mostly Cloudy
12:54 PM 66.9 °F 52.0 °F 59% 30.28 in 10.0 mi NNW 6.9 mph - N/A   Mostly Cloudy
1:54 PM 68.0 °F 51.1 °F 55% 30.27 in 10.0 mi NE 10.4 mph - N/A   Mostly Cloudy
2:54 PM 70.0 °F 51.1 °F 51% 30.27 in 10.0 mi ENE 8.1 mph - N/A   Mostly Cloudy
3:54 PM 70.0 °F 52.0 °F 53% 30.26 in 10.0 mi East 9.2 mph - N/A   Mostly Cloudy
4:54 PM 69.1 °F 51.1 °F 53% 30.26 in 10.0 mi ENE 9.2 mph - N/A   Mostly Cloudy
5:54 PM 69.1 °F 51.1 °F 53% 30.27 in 10.0 mi NE 10.4 mph - N/A   Mostly Cloudy
6:54 PM 69.1 °F 50.0 °F 51% 30.27 in 10.0 mi ENE 11.5 mph - N/A   Mostly Cloudy
7:54 PM 66.9 °F 50.0 °F 54% 30.27 in 10.0 mi ESE 6.9 mph - N/A   Scattered Clouds
8:54 PM 64.0 °F 51.1 °F 63% 30.29 in 10.0 mi ENE 4.6 mph - N/A   Partly Cloudy
9:54 PM 62.1 °F 52.0 °F 70% 30.30 in 10.0 mi ENE 6.9 mph - N/A   Clear
10:54 PM 60.1 °F 52.0 °F 75% 30.30 in 10.0 mi NE 4.6 mph - N/A   Clear
11:54 PM 59.0 °F 52.0 °F 78% 30.30 in 10.0 mi ENE 5.8 mph - N/A   Clear